DW8847 Weather Reports


Display with metric or nautical units.
time (UTC)temp
F
wind
direction
speed
MPH
gust
MPH
rain 1hr
in
rain 24hr
in
rain mn
in
humidity
%
barometer
mb
20260505102019 63 198 0.0 2.0 0.00 0.00 0.00 72 1014.3
20260505101518 63 198 0.0 2.0 0.00 0.00 0.00 72 1014.2
20260505101018 63 198 0.0 4.0 0.00 0.00 0.00 71 1014.2
20260505100517 63 190 0.0 3.0 0.00 0.00 0.00 71 1014.1
20260505100028 63 194 0.0 3.0 0.00 0.00 0.00 73 1014.2
20260505095517 63 199 1.0 3.0 0.00 0.00 0.00 73 1014.2
20260505095016 63 202 0.0 3.0 0.00 0.00 0.00 74 1014.2
20260505094516 63 203 0.0 3.0 0.00 0.00 0.00 76 1014.2
20260505094015 63 139 0.0 2.0 0.00 0.00 0.00 76 1014.2
20260505093515 63 91 0.0 2.0 0.00 0.00 0.00 77 1014.2
20260505093024 63 86 0.0 2.0 0.00 0.00 0.00 77 1014.3
20260505092515 63 113 0.0 2.0 0.00 0.00 0.00 78 1014.3
20260505092015 63 98 0.0 3.0 0.00 0.00 0.00 78 1014.3
20260505091517 63 120 0.0 3.0 0.00 0.00 0.00 78 1014.4
20260505091016 62 22 0.0 3.0 0.00 0.00 0.00 78 1014.4
20260505090514 62 44 0.0 3.0 0.00 0.00 0.00 78 1014.4
20260505090014 62 111 0.0 3.0 0.00 0.00 0.00 78 1014.4
20260505085514 62 69 0.0 4.0 0.00 0.00 0.00 78 1014.4
20260505085017 62 89 0.0 4.0 0.00 0.00 0.00 78 1014.3
20260505084515 62 30 1.0 3.0 0.00 0.00 0.00 78 1014.4
20260505084013 62 82 0.0 4.0 0.00 0.00 0.00 78 1014.3
20260505083519 61 62 1.0 4.0 0.00 0.00 0.00 77 1014.3
20260505083015 61 71 2.0 5.0 0.00 0.00 0.00 77 1014.2
20260505082512 61 55 2.0 5.0 0.00 0.00 0.00 77 1014.2
20260505082012 61 65 1.0 4.0 0.00 0.00 0.00 77 1014.1
20260505081516 61 56 1.0 4.0 0.00 0.00 0.00 77 1014.0
20260505081012 61 55 1.0 5.0 0.00 0.00 0.00 76 1014.0
20260505080512 61 78 1.0 5.0 0.00 0.00 0.00 75 1014.0
20260505080012 61 67 0.0 3.0 0.00 0.00 0.00 75 1014.0
20260505075511 62 64 0.0 5.0 0.00 0.00 0.00 75 1014.0
20260505075011 62 33 2.0 5.0 0.00 0.00 0.00 74 1014.0
20260505074512 62 53 1.0 5.0 0.00 0.00 0.00 73 1013.9
20260505074011 62 57 1.0 5.0 0.00 0.00 0.00 73 1014.0
20260505073511 62 73 2.0 5.0 0.00 0.00 0.00 73 1014.0
20260505073012 63 38 2.0 9.0 0.00 0.00 0.00 73 1014.0
20260505072512 63 42 4.0 9.0 0.00 0.00 0.00 71 1014.0
20260505072009 62 28 2.0 6.0 0.00 0.00 0.00 71 1014.0
20260505071509 62 48 3.0 6.0 0.00 0.00 0.00 71 1014.1
20260505071008 60 17 2.0 5.0 0.00 0.00 0.00 73 1014.0
20260505070509 60 29 1.0 5.0 0.00 0.00 0.00 74 1014.0
20260505070004 60 34 1.0 5.0 0.00 0.00 0.00 73 1014.1
20260505065504 59 29 2.0 4.0 0.00 0.00 0.00 74 1014.0
20260505065005 59 36 1.0 4.0 0.00 0.00 0.00 74 1014.0
20260505064502 59 32 1.0 4.0 0.00 0.00 0.00 74 1014.0
20260505064003 59 46 1.0 3.0 0.00 0.00 0.00 74 1013.9
20260505063502 59 42 1.0 4.0 0.00 0.00 0.00 74 1013.9
20260505063003 59 42 1.0 4.0 0.00 0.00 0.00 74 1013.9
20260505062502 59 46 2.0 4.0 0.00 0.00 0.00 74 1013.8
20260505062002 59 28 1.0 4.0 0.00 0.00 0.00 74 1013.8
20260505061601 58 42 1.0 5.0 0.00 0.00 0.00 75 1013.9
20260505061059 58 35 2.0 5.0 0.00 0.00 0.00 75 1013.8
20260505060604 58 38 1.0 3.0 0.00 0.00 0.00 75 1013.7
20260505060100 58 50 1.0 3.0 0.00 0.00 0.00 76 1013.6
20260505055558 58 32 1.0 4.0 0.00 0.00 0.00 77 1013.7
20260505055057 58 42 2.0 4.0 0.00 0.00 0.00 78 1013.6
20260505054620 57 35 1.0 3.0 0.00 0.00 0.00 79 1013.6
20260505054101 57 44 0.0 3.0 0.00 0.00 0.00 79 1013.6
20260505053555 56 44 1.0 3.0 0.00 0.00 0.00 79 1013.6
20260505053055 56 27 0.0 2.0 0.00 0.00 0.00 80 1013.5
20260505052554 56 27 0.0 3.0 0.00 0.00 0.00 80 1013.6
20260505052052 56 27 1.0 3.0 0.00 0.00 0.00 80 1013.6
20260505051552 56 54 1.0 3.0 0.00 0.00 0.00 80 1013.6
20260505051052 56 90 0.0 2.0 0.00 0.00 0.00 81 1013.6
20260505050552 56 98 0.0 2.0 0.00 0.00 0.00 81 1013.5
20260505041600 55 104 0.0 2.0 0.00 0.00 0.00 83 1013.4
20260505041047 55 104 0.0 2.0 0.00 0.00 0.00 84 1013.4
20260505040547 54 104 0.0 2.0 0.00 0.00 0.00 84 1013.3
20260505040046 54 104 0.0 2.0 0.00 0.00 0.00 84 1013.3
20260505035545 54 104 0.0 0.0 0.00 0.00 0.00 84 1013.3
20260505035045 54 104 0.0 2.0 0.00 0.00 0.00 84 1013.3
20260505034545 54 104 0.0 2.0 0.00 0.00 0.00 84 1013.2
20260505034045 54 104 0.0 2.0 0.00 0.00 0.00 84 1013.3
20260505033545 54 104 0.0 2.0 0.00 0.00 0.00 84 1013.3
20260505033045 54 104 0.0 2.0 0.00 0.00 0.00 84 1013.3
20260505032545 54 104 0.0 2.0 0.00 0.00 0.00 84 1013.4
20260505032047 54 103 0.0 2.0 0.00 0.00 0.00 83 1013.4
20260505031543 55 104 0.0 0.0 0.00 0.00 0.00 83 1013.5
20260505031042 55 104 0.0 0.0 0.00 0.00 0.00 83 1013.6
20260505030545 55 104 0.0 0.0 0.00 0.00 0.00 83 1013.5
20260505030055 55 104 0.0 0.0 0.00 0.00 0.00 83 1013.5
20260505025542 55 104 0.0 0.0 0.00 0.00 0.00 83 1013.6
20260505025041 55 104 0.0 0.0 0.00 0.00 0.00 82 1013.6
20260505024541 56 104 0.0 0.0 0.00 0.00 0.00 82 1013.7
20260505024040 56 104 0.0 0.0 0.00 0.00 0.00 82 1013.7
20260505023540 56 104 0.0 0.0 0.00 0.00 0.00 82 1013.7
20260505023040 56 104 0.0 0.0 0.00 0.00 0.00 82 1013.7
20260505022540 57 104 0.0 2.0 0.00 0.00 0.00 81 1013.7
20260505022039 57 104 0.0 2.0 0.00 0.00 0.00 81 1013.8
20260505021550 57 104 0.0 2.0 0.00 0.00 0.00 81 1013.8
20260505021037 57 104 0.0 2.0 0.00 0.00 0.00 81 1013.9
20260505020539 57 104 0.0 2.0 0.00 0.00 0.00 81 1014.0
20260505020049 57 104 0.0 0.0 0.00 0.00 0.00 81 1014.1
20260505015536 57 104 0.0 2.0 0.00 0.00 0.00 82 1014.1
20260505015036 57 104 0.0 2.0 0.00 0.00 0.00 82 1014.1
20260505014535 57 104 0.0 2.0 0.00 0.00 0.00 82 1014.2
20260505014034 57 111 0.0 2.0 0.00 0.00 0.00 82 1014.2
20260505013536 57 111 0.0 2.0 0.00 0.00 0.00 83 1014.3
20260505013033 57 111 0.0 2.0 0.00 0.00 0.00 83 1014.4
20260505012532 57 111 0.0 2.0 0.00 0.00 0.00 83 1014.4
20260505012032 56 111 0.0 2.0 0.00 0.00 0.00 84 1014.5
20260505011534 56 111 0.0 2.0 0.00 0.00 0.00 84 1014.5
20260505011030 56 111 0.0 2.0 0.00 0.00 0.00 84 1014.5
20260505010530 56 111 0.0 2.0 0.00 0.00 0.00 84 1014.5
20260505010037 55 111 0.0 2.0 0.00 0.00 0.00 84 1014.6
20260505005529 55 111 0.0 2.0 0.00 0.00 0.00 84 1014.7
20260505005031 54 111 0.0 2.0 0.00 0.00 0.00 84 1014.7
20260505004528 54 111 0.0 2.0 0.00 0.00 0.00 84 1014.7
20260505004027 54 111 0.0 0.0 0.00 0.00 0.00 84 1014.8
20260505003527 53 111 0.0 2.0 0.00 0.00 0.00 84 1014.8
20260505003029 53 111 0.0 2.0 0.00 0.00 0.00 85 1014.9
20260505002529 53 111 0.0 2.0 0.00 0.00 0.00 85 1014.9
20260505002027 52 111 0.0 2.0 0.00 0.00 0.00 84 1014.9
20260505001527 52 111 0.0 2.0 0.00 0.00 0.00 84 1014.9
20260505001025 52 111 0.0 2.0 0.00 0.00 0.00 85 1014.9
20260505000525 52 111 0.0 2.0 0.00 0.00 0.00 85 1015.1
20260505000024 52 111 0.0 2.0 0.00 0.00 0.00 85 1015.2
20260504235523 52 111 0.0 2.0 0.00 0.00 0.00 84 1015.1
20260504235023 52 111 0.0 2.0 0.00 0.00 0.00 82 1015.2
20260504234521 53 111 0.0 2.0 0.00 0.00 0.00 82 1015.3
20260504234021 53 111 0.0 0.0 0.00 0.00 0.00 83 1015.3
20260504233523 53 111 0.0 0.0 0.00 0.00 0.00 83 1015.3
20260504233022 53 111 0.0 2.0 0.00 0.00 0.00 82 1015.4
20260504232521 53 111 0.0 2.0 0.00 0.00 0.00 82 1015.4
20260504232020 53 111 0.0 2.0 0.00 0.00 0.00 83 1015.4
20260504231520 52 111 0.0 2.0 0.00 0.00 0.00 83 1015.4
20260504231019 52 111 0.0 2.0 0.00 0.00 0.00 82 1015.4
20260504230518 52 111 0.0 2.0 0.00 0.00 0.00 82 1015.5
20260504230018 53 111 0.0 2.0 0.00 0.00 0.00 81 1015.6
20260504225517 53 111 0.0 0.0 0.00 0.00 0.00 81 1015.6
20260504225017 53 111 0.0 0.0 0.00 0.00 0.00 81 1015.6
20260504224522 53 111 0.0 0.0 0.00 0.00 0.00 81 1015.7
20260504224016 53 111 0.0 2.0 0.00 0.00 0.00 81 1015.6
20260504223516 53 111 0.0 0.0 0.00 0.00 0.00 80 1015.7
20260504223015 53 111 0.0 0.0 0.00 0.00 0.00 78 1015.7
20260504222513 54 111 0.0 0.0 0.00 0.00 0.00 77 1015.7
20260504222011 54 111 0.0 0.0 0.00 0.00 0.00 77 1015.6
20260504221510 55 111 0.0 0.0 0.00 0.00 0.00 76 1015.6
20260504221008 56 111 0.0 2.0 0.00 0.00 0.00 75 1015.6
20260504220507 56 111 0.0 2.0 0.00 0.00 0.00 74 1015.6
20260504220006 57 111 0.0 2.0 0.00 0.00 0.00 74 1015.7
20260504215510 57 111 0.0 2.0 0.00 0.00 0.00 75 1015.7
20260504215007 57 111 0.0 2.0 0.00 0.00 0.00 75 1015.8
20260504214508 57 111 0.0 2.0 0.00 0.00 0.00 75 1015.8
20260504214009 56 111 0.0 2.0 0.00 0.00 0.00 76 1015.7
20260504213506 56 142 0.0 2.0 0.00 0.00 0.00 76 1015.8
20260504213006 56 142 0.0 2.0 0.00 0.00 0.00 76 1015.8
20260504212506 56 142 0.0 0.0 0.00 0.00 0.00 75 1015.8
20260504212006 56 142 0.0 1.0 0.00 0.00 0.00 76 1015.8
20260504211505 56 142 0.0 1.0 0.00 0.00 0.00 75 1015.8
20260504211004 56 142 0.0 0.0 0.00 0.00 0.00 75 1015.9
20260504210505 57 142 0.0 0.0 0.00 0.00 0.00 75 1016.0
20260504210010 57 142 0.0 0.0 0.00 0.00 0.00 74 1016.0
20260504205505 58 142 0.0 0.0 0.00 0.00 0.00 74 1016.0
20260504205007 58 142 0.0 0.0 0.00 0.00 0.00 72 1016.0
20260504204509 59 142 0.0 0.0 0.00 0.00 0.00 72 1016.0
20260504204004 59 142 0.0 0.0 0.00 0.00 0.00 72 1016.0
20260504203504 60 142 0.0 0.0 0.00 0.00 0.00 72 1016.0
20260504203004 60 142 0.0 0.0 0.00 0.00 0.00 71 1016.0
20260504202506 59 142 0.0 1.0 0.00 0.00 0.00 71 1016.0
20260504202004 59 142 0.0 0.0 0.00 0.00 0.00 72 1016.0
20260504201505 60 142 0.0 0.0 0.00 0.00 0.00 72 1016.0
20260504201003 60 142 0.0 0.0 0.00 0.00 0.00 71 1015.9
20260504200503 61 142 0.0 0.0 0.00 0.00 0.00 71 1015.9
20260504200004 61 142 0.0 0.0 0.00 0.00 0.00 71 1015.8
20260504195503 61 142 0.0 1.0 0.00 0.00 0.00 70 1015.8
20260504195004 61 142 0.0 1.0 0.00 0.00 0.00 69 1015.8
20260504194502 61 142 0.0 2.0 0.00 0.00 0.00 69 1015.7
20260504194002 60 156 0.0 2.0 0.00 0.00 0.00 69 1015.7
20260504193506 61 156 0.0 0.0 0.00 0.00 0.00 68 1015.7
20260504193002 61 156 0.0 2.0 0.00 0.00 0.00 67 1015.7
20260504192503 61 157 0.0 2.0 0.00 0.00 0.00 66 1015.6
20260504192002 62 157 0.0 0.0 0.00 0.00 0.00 65 1015.6
20260504191502 62 157 0.0 0.0 0.00 0.00 0.00 65 1015.6
20260504191001 62 156 0.0 0.0 0.00 0.00 0.00 64 1015.5
20260504190503 62 157 0.0 0.0 0.00 0.00 0.00 64 1015.5
20260504190002 62 156 0.0 0.0 0.00 0.00 0.00 63 1015.4
20260504185500 63 156 0.0 0.0 0.00 0.00 0.00 63 1015.3
20260504185001 63 156 0.0 0.0 0.00 0.00 0.00 63 1015.3
20260504184502 64 157 0.0 0.0 0.00 0.00 0.00 62 1015.2
20260504184001 64 157 0.0 0.0 0.00 0.00 0.00 61 1015.2
20260504183601 64 157 0.0 0.0 0.00 0.00 0.00 63 1015.2
20260504183100 65 156 0.0 0.0 0.00 0.00 0.00 60 1015.1
20260504182603 65 156 0.0 0.0 0.00 0.00 0.00 59 1015.1
20260504182100 66 157 0.0 0.0 0.00 0.00 0.00 58 1015.0
20260504181603 66 157 0.0 2.0 0.00 0.00 0.00 56 1015.0
20260504181100 67 156 0.0 2.0 0.00 0.00 0.00 56 1015.0
20260504180600 67 189 0.0 2.0 0.00 0.00 0.00 55 1015.0
20260504180100 67 189 0.0 3.0 0.00 0.00 0.00 55 1015.0
20260504175559 68 196 0.0 3.0 0.00 0.00 0.00 55 1015.0
20260504175059 68 201 0.0 3.0 0.00 0.00 0.00 56 1015.0
20260504174559 68 174 1.0 4.0 0.00 0.00 0.00 56 1014.9
20260504174101 69 174 0.0 4.0 0.00 0.00 0.00 56 1014.9
20260504173559 69 197 0.0 2.0 0.00 0.00 0.00 56 1014.8
20260504173059 70 209 0.0 2.0 0.00 0.00 0.00 56 1014.8
20260504172559 70 209 0.0 4.0 0.00 0.00 0.00 56 1014.7
20260504172059 70 188 1.0 5.0 0.00 0.00 0.00 57 1014.8
20260504171600 70 215 2.0 7.0 0.00 0.00 0.00 58 1014.7
20260504171059 70 219 3.0 7.0 0.00 0.00 0.00 57 1014.7
20260504170557 70 184 1.0 6.0 0.00 0.00 0.00 59 1014.7
20260504151050 73 189 1.0 5.0 0.00 0.00 0.00 51 1014.9
20260504150552 73 213 1.0 4.0 0.00 0.00 0.00 50 1015.0
20260504141046 73 122 0.0 4.0 0.00 0.00 0.00 51 1015.3
20260504140546 73 95 0.0 5.0 0.00 0.00 0.00 50 1015.2
20260504130545 75 221 2.0 8.0 0.00 0.00 0.00 45 1015.5
20260504110530 75 67 1.0 5.0 0.00 0.00 0.00 39 1016.4